Starlink 4269

operational
NORAD ID: 52992 Int'l Des: 2022-076 Owner: SPXS Country: US Constellation: starlink
LEOCIRCULAR

Starlink 4269について

説明を読み込み中...

リアルタイム位置

3D地球を読み込み中...

次回通過

高度履歴

Altitude vs Time

uPlot chart will show altitude changes over time

軌道要素

1 52992U 22076G 25260.12204805 .00010196 00000-0 65873-3 0 9990
2 52992 53.2182 163.3091 0001925 96.2043 263.9168 15.08787842176508
Epoch: Sep 17, 2025 • Age: 13 hours

現在のステータス

高度 542.0 km
速度 7.60 km/s
衛星直下点 38.68°N, 64.2°E
打ち上げ日 Jul 7, 2022
運用期間 3.1 years
タイプ internet

技術仕様

分類 Payload
質量 297.00 kg
乾燥質量 275.00 kg
総質量 297.00 kg
長さ 0.20 m
直径 2.80 m
スパン 9.00 m
形状 Box + pan
製造者 SPXS
バスタイプ Starlink
フェーズステータス In Orbit
所有者/国 SPXS/US

大規模コンステレーション

Loading constellations...